Location: Belmont
(13.0833°N, 59.6000°W)
Time: 16:34:41
(UTC+00:00)

ARIANE 5 R/B - Pass Details

Date: 17 September 2019
Orbit: 262 x 32129 km, 2.7° (Epoch: 16 October)

Event Time Altitude Azimuth Distance (km) Brightness Sun altitude
Rises 22:09:50 0° 259° (W) 11,383 10.0 -3.7°
Reaches altitude 10° 22:24:34 10° 249° (WSW) 5,858 7.7 -7.2°
Maximum altitude 22:33:48 21° 204° (SSW) 2,138 4.5 -9.5°
Drops below altitude 10° 22:37:03 10° 151° (SSE) 1,885 3.7 -10.3°
Enters shadow 22:37:47 - 141° (SE) 2,041 3.8 -10.5°
